Regional Weather Roundup
Issued by NWS

Home | Current Version | Previous Version | Graphics & Text | Print | Product List | Glossary On
Versions: 1 2 3 4 5 6 7 8 9 10 11 12 13 14 15 16 17 18 19 20 21 22 23 24 25 26 27 28 29 30 31 32 33 34 35 36 37 38 39 40 41 42 43 44 45 46 47 48 49 50
000
ASUS43 KIND 021509
RWRIN

WEATHER ROUNDUP FOR INDIANA
NATIONAL WEATHER SERVICE INDIANAPOLIS IN
1100 AM EDT TUE JUN 02 2015

NOTE: "FAIR" INDICATES FEW OR NO CLOUDS BELOW 12,000 FEET WITH NO
SIGNIFICANT WEATHER AND/OR OBSTRUCTIONS TO VISIBILITY.

* - STATION DOES NOT REPORT WEATHER SUCH AS PRECIPITATION OR FOG.

+ - STATION NOT QUALITY CONTROLLED BY THE NATIONAL WEATHER SERVICE.
    USE DATA WITH CAUTION...ESPECIALLY DEWPOINT AND RELATIVE
    HUMIDITY OBSERVATIONS.

INZ001>003-010>013-019-020-021600-
NORTHWEST INDIANA

CITY           SKY/WX    TMP DP  RH WIND       PRES   REMARKS
GARY /AIRPORT/ MOSUNNY   63  50  63 CALM      30.21F
KNOX *+        MOSUNNY   61  46  59 E6        30.20F
LA PORTE +     SUNNY     63  47  56 E8        30.21F
MICHIGAN CITY+ SUNNY     63  46  55 NE3       30.21F
MONTICELLO +   PTSUNNY   60  51  70 NE8       30.19F
RENSSELAER +   SUNNY     61  50  67 NE12      30.20F
VALPARAISO     SUNNY     63  46  54 E7        30.21F

$$

LMZ046-743>745-021600-
SOUTHERN LAKE MICHIGAN

STATION/POSITION TIME  TEMP    WIND        PRES    WAVE
                       AIR SEA DIR/SP/G            HT
                 (UTC) (F)     (DEG/KT/KT) (MB)    (FT)
BURNS HARBOR     1500          340/  6/  7 1023.4F
MICHIGAN CITY    1500   58     320/  6/  6   N/A
5NW MICH CITY    1500   53 56  360/  6/  6   N/A     1

$$

INZ004-005-014>016-021>024-021600-
NORTH CENTRAL INDIANA

CITY           SKY/WX    TMP DP  RH WIND       PRES   REMARKS
ELKHART        SUNNY     61  45  55 CALM      30.21F
GOSHEN         SUNNY     62  48  60 NE8       30.20F
LOGANSPORT +   MOSUNNY   61  46  59 NE7       30.20F
PERU/GRISSOM   MOSUNNY   61  50  68 E9        30.18F
ROCHESTER +    MOSUNNY   63  50  63 E7        30.20F
SOUTH BEND     SUNNY     62  46  55 VRB5      30.21F
WARSAW +       SUNNY     61  48  63 E8        30.21F

$$

INZ006>009-017-018-025>027-021600-
NORTHEAST INDIANA

CITY           SKY/WX    TMP DP  RH WIND       PRES   REMARKS
ANGOLA *+      SUNNY     63  52  67 E8        30.20S
AUBURN +       SUNNY     63  46  55 E8        30.21F
FORT WAYNE     MOSUNNY   61  49  64 NE13      30.20F
HUNTINGTON +   SUNNY     61  49  65 E8        30.19F

$$

INZ028-029-035-036-043>045-051>053-021600-
WEST CENTRAL INDIANA

CITY           SKY/WX    TMP DP  RH WIND       PRES   REMARKS
CRAWFORDSVL +  MOSUNNY   58  46  64 E7        30.18S
GREENCASTLE +  SUNNY     61  46  59 E8        30.17F
LAFAYETTE      SUNNY     61  51  70 NE10      30.19F
TERRE HAUTE    MOSUNNY   60  51  72 VRB5      30.16F

$$

INZ030>032-037>040-046>048-054>057-064-065-021600-
CENTRAL INDIANA

CITY           SKY/WX    TMP DP  RH WIND       PRES   REMARKS
ANDERSON       CLOUDY    57  46  67 NE6       30.19S
CP ATTERBURY + PTSUNNY   59  52  77 E6        30.17F
COLUMBUS       CLOUDY    55  48  76 NE9       30.17F
FRANKFORT +    MOSUNNY   61  52  73 NE10      30.20F
GREENWOOD *+   MOSUNNY   59  48  67 NE9       30.17F
INDIANAPOLIS   MOSUNNY   61  49  64 NE10      30.16F
-EAGLE CREEK   SUNNY     61  50  67 VRB7      30.17S
KOKOMO *+      MOSUNNY   61  50  67 NE12      30.19F
MARION +       MOSUNNY   58  48  70 NE9       30.20S
MT COMFORT *+  CLOUDY    57  45  62 E8        30.19S
SHELBYVILLE    CLOUDY    60  51  72 NE12      30.17S
ZIONSVILLE +     N/A    N/A N/A N/A MISG        N/A

$$

INZ033-034-041-042-049-050-058-059-021600-
EAST CENTRAL INDIANA

CITY           SKY/WX    TMP DP  RH WIND       PRES   REMARKS
MUNCIE         CLOUDY    57  51  80 E9        30.18F

$$

INZ060-061-067>069-081>083-085>088-021600-
SOUTHWEST INDIANA

CITY           SKY/WX    TMP DP  RH WIND       PRES   REMARKS
EVANSVILLE     CLOUDY    60  55  83 NE7       30.14F
HUNTINGBURG *+ CLOUDY    57  52  82 NE7       30.15S
WASHINGTON +   CLOUDY    57  51  81 NE6       30.16S

$$

INZ062-063-066-070>080-084-089>092-021600-
SOUTH CENTRAL AND SOUTHEAST INDIANA

CITY           SKY/WX    TMP DP  RH WIND       PRES   REMARKS
BLOOMINGTON    CLOUDY    58  51  78 NE8       30.16S
MADISON *+     CLOUDY    55  50  82 NE7       30.18S
NORTH VERNON + CLOUDY    55  55 100 NE7       30.18R
SEYMOUR +      CLOUDY    57  50  77 N8        30.16S

$$




USA.gov is the U.S. government's official web portal to all federal, state and local government web resources and services.